Regional Weather Roundup
Issued by NWS Green Bay, WI

Home | Current Version | Previous Version | Text Only | Print | Product List | Glossary On
Versions: 1 2 3 4 5 6 7 8 9 10 11 12 13 14 15 16 17 18 19 20 21 22 23 24 25 26 27 28 29 30 31 32 33 34 35 36 37 38 39 40 41 42 43 44 45 46 47 48 49 50
000
ASUS43 KGRB 300459
RWRGRB

NORTH-CENTRAL AND NORTHEAST WISCONSIN REGIONAL WEATHER ROUNDUP
NATIONAL WEATHER SERVICE GREEN BAY WI
1200 AM CDT TUE SEP 30 2014

WIZ005-009-010>012-018-019-300600-
NORTH CENTRAL WISCONSIN

CITY           SKY/WX    TMP DP  RH WIND       PRES   REMARKS
IRONWOOD       NOT AVBL
MANITOWISH WTR NOT AVBL
ARBOR VITAE    NOT AVBL
EAGLE RIVER    NOT AVBL
LAND O LAKES   NOT AVBL
RHINELANDER    CLOUDY    37  35  92 NE8       30.15S
PHILLIPS       NOT AVBL
ANTIGO         NOT AVBL
TOMAHAWK       NOT AVBL
MERRILL        NOT AVBL
$$

WIZ013-073-300600-
NORTHEAST WISCONSIN

CITY           SKY/WX    TMP DP  RH WIND       PRES   REMARKS
IRON MOUNTAIN  CLOUDY    41  37  86 N13       30.12S
MARINETTE      NOT AVBL
$$

WIZ017-030-035>037-045-300600-
CENTRAL WISCONSIN

CITY           SKY/WX    TMP DP  RH WIND       PRES   REMARKS
MEDFORD        NOT AVBL
WAUSAU         CLOUDY    42  37  82 NE6       30.11F
MOSINEE        CLOUDY    41  37  87 NE13      30.13F
MARSHFIELD     CLOUDY    43  37  79 NE14      30.10S
WISC RAPIDS    CLOUDY    46  39  76 NE13      30.12R
STEVENS POINT  NOT AVBL
WAUPACA        NOT AVBL
SHAWANO        CLOUDY    45  38  77 N13G18    30.13R
CLINTONVILLE   CLOUDY    43  37  81 N9        30.11S
$$

WIZ038-039-048-051-300600-
FOX VALLEY

CITY           SKY/WX    TMP DP  RH WIND       PRES   REMARKS
NWS GREEN BAY  CLOUDY    43  39  86 N12       30.11R
APPLETON       NOT AVBL
OSHKOSH        CLOUDY    47  40  76 NE15      30.09R
FOND DU LAC    CLOUDY    48  41  76 NE17      30.09R
$$

WIZ022-050-052-300600-
EAST CENTRAL WISCONSIN

CITY           SKY/WX    TMP DP  RH WIND       PRES   REMARKS
STURGEON BAY   NOT AVBL
MANITOWOC      NOT AVBL
SHEBOYGAN      CLOUDY    45  39  79 N14       30.08R
$$

LMZ563-521-522-541>543-300600-
LAKESHORE

STATION/POSITION TIME  TEMP    WIND        PRES    VSBY  WAVE
                       AIR SEA DIR/SP/G                  HT/PER
                 (UTC) (F)     (DEG/KT/KT) (MB)    (MI)  (FT/S)
SHEBOYGAN LKSHOR 0400   48 55  360/ 20/ 23 1018.5R
KEWAUNEE LKSHORE 0400   45     350/  7/ 16 1017.7S
NORTHPORT PIER   0400   47     360/ 23/ 26 1018.6S
N MID LAKE BUOY  0400   47 58  350/ 21/ 25 1017.4F         5/ 6
CHAMBERS ISLAND  0400   47     340/ 19/ 25 1019.0F
MENOMINEE LKSHOR 0400   45     330/ 15/ 16 1019.9
$$



USA.gov is the U.S. government's official web portal to all federal, state and local government web resources and services.